Gary, IN

4:09 PM CDT on April 30, 2017 (GMT -0500)
Gary / Chicago

Weather History for KGYY - April, 2014

Change the Weather History Date:

Sunday, April 13, 2014

  Actual Average Record
Temperature  
Mean Temperature 58 °F -  
Max Temperature 72 °F 63 °F 80 °F (2006)
Min Temperature 46 °F 39 °F 20 °F (1950)
Degree Days  
Heating Degree Days 6    
Growing Degree Days 8 (Base 50)    
Moisture  
Dew Point 53 °F    
Average Humidity 73    
Maximum Humidity 100    
Minimum Humidity 56    
Precipitation  
Precipitation 0.01 in - - ()
Sea Level Pressure  
Sea Level Pressure 29.65 in    
Wind  
Wind Speed 11 mph (South)    
Max Wind Speed 26 mph    
Max Gust Speed 34 mph    
Visibility 9 miles    
Events Rain    
Averages and records for this station are not official NWS values.
T = Trace of Precipitation, MM = Missing Value Source: NWS Daily Summary

Daily Weather History Graph

Daily Weather History Graph

Search for Another Location

Airport or City:

Trip Planner

Search our weather history database for the weather conditions in past years. The results will help you decide how hot, cold, wet, or windy it might be!

Date:

Astronomy

Apr. 13, 2014 Rise Set
Actual Time 6:12 AM CDT 7:28 PM CDT
Civil Twilight 5:44 AM CDT 7:56 PM CDT
Nautical Twilight 5:09 AM CDT 8:31 PM CDT
Astronomical Twilight 4:33 AM CDT 9:07 PM CDT
Moon 6:04 PM CDT (4/13) 5:12 AM CDT (4/13)
Length of Visible Light 14h 12m
Length of Day
13h 15m
Waxing Gibbous, 97% of the Moon is Illuminated
Apr 13
Waxing Gibbous
Apr 15
Full
Apr 22
Last Quarter
Apr 29
New
May 6
First Quarter

Hourly Weather History & Observations

Time (CDT) Temp. Windchill Dew Point Humidity Pressure Visibility Wind Dir Wind Speed Gust Speed Precip Events Conditions
12:15 AM 68.0 °F - 51.8 °F 56% 29.72 in 10.0 mi SSW 8.1 mph - N/A   Scattered Clouds
12:35 AM 68.0 °F - 51.8 °F 56% 29.73 in 10.0 mi South 8.1 mph - N/A   Mostly Cloudy
12:55 AM 67.5 °F - 51.8 °F 57% 29.73 in 10.0 mi South 5.8 mph 16.1 mph N/A   Mostly Cloudy
1:15 AM 67.1 °F - 52.0 °F 58% 29.72 in 10.0 mi South 9.2 mph 16.1 mph N/A   Scattered Clouds
1:35 AM 67.1 °F - 52.3 °F 59% 29.72 in 10.0 mi South 10.4 mph - N/A   Scattered Clouds
1:55 AM 66.9 °F - 52.7 °F 60% 29.72 in 10.0 mi South 9.2 mph 16.1 mph N/A   Scattered Clouds
2:15 AM 66.6 °F - 52.9 °F 61% 29.72 in 10.0 mi South 9.2 mph 16.1 mph N/A   Mostly Cloudy
2:35 AM 66.2 °F - 53.2 °F 63% 29.72 in 10.0 mi SSW 11.5 mph 18.4 mph N/A   Overcast
2:55 AM 66.2 °F - 53.6 °F 64% 29.71 in 10.0 mi SSW 8.1 mph 17.3 mph N/A   Overcast
3:15 AM 65.3 °F - 53.6 °F 66% 29.70 in 10.0 mi SSW 8.1 mph 24.2 mph N/A   Scattered Clouds
3:35 AM 64.9 °F - 53.6 °F 67% 29.69 in 10.0 mi SSW 10.4 mph 19.6 mph N/A   Clear
4:15 AM 64.8 °F - 53.6 °F 67% 29.69 in 10.0 mi SSW 10.4 mph 19.6 mph N/A   Scattered Clouds
4:45 AM 64.4 °F - 53.6 °F 68% 29.70 in 10.0 mi SSW 13.8 mph 28.8 mph N/A   Overcast
5:45 AM 64.4 °F - 53.6 °F 68% 29.69 in 10.0 mi SSW 23.0 mph - N/A   Overcast
6:45 AM 66.2 °F - 53.6 °F 64% 29.70 in 10.0 mi SW 11.5 mph 27.6 mph N/A   Overcast
7:45 AM 66.2 °F - 53.6 °F 64% 29.73 in 10.0 mi SSW 13.8 mph 29.9 mph N/A   Overcast
8:45 AM 68.0 °F - 53.6 °F 60% 29.74 in 20.0 mi SW 20.7 mph 32.2 mph N/A   Mostly Cloudy
10:45 AM 71.6 °F - 55.4 °F 57% 29.74 in 20.0 mi WSW 26.5 mph - N/A   Overcast
11:45 AM 51.8 °F - 42.8 °F 71% 29.78 in 15.0 mi NE 11.5 mph 28.8 mph N/A   Overcast
12:45 PM 46.4 °F 41.1 °F 41.0 °F 81% 29.81 in 7.0 mi NE 11.5 mph 17.3 mph N/A   Overcast
1:45 PM 46.4 °F 40.4 °F 42.8 °F 87% 29.77 in 5.0 mi ENE 13.8 mph - N/A   Overcast
2:45 PM 48.2 °F - 44.6 °F 87% 29.74 in 4.0 mi East 9.2 mph - N/A   Overcast
3:45 PM 50.0 °F - 46.4 °F 87% 29.70 in 2.0 mi ENE 9.2 mph - N/A Rain Light Rain
4:45 PM 51.8 °F - 50.0 °F 94% 29.66 in 3.0 mi Calm Calm - N/A   Overcast
5:45 PM 46.4 °F 42.9 °F 44.6 °F 93% 29.63 in 2.0 mi East 6.9 mph - N/A   Overcast
6:45 PM 50.0 °F - 48.2 °F 94% 29.61 in 1.0 mi SE 6.9 mph - N/A Rain Rain
7:06 PM 60.8 °F - 60.8 °F 100% 29.58 in 10.0 mi South 9.2 mph - N/A Rain Light Rain
7:45 PM 64.4 °F - 60.8 °F 88% 29.58 in 10.0 mi South 13.8 mph 27.6 mph N/A Rain Light Rain
8:45 PM 66.2 °F - 59.0 °F 78% 29.54 in 10.0 mi South 17.3 mph 28.8 mph N/A   Overcast
9:15 PM 66.2 °F - 59.4 °F 79% 29.54 in 10.0 mi South 11.5 mph 26.5 mph N/A   Overcast
9:35 PM 65.8 °F - 59.4 °F 80% 29.54 in 10.0 mi South 17.3 mph 26.5 mph N/A Rain Light Rain
9:45 PM 66.2 °F - 59.0 °F 78% 29.53 in 10.0 mi SSE 17.3 mph 28.8 mph N/A Rain Light Rain
9:55 PM 66.2 °F - 59.2 °F 78% 29.52 in 10.0 mi South 13.8 mph 24.2 mph N/A   Overcast
10:15 PM 67.1 °F - 58.5 °F 74% 29.52 in 10.0 mi South 18.4 mph 25.3 mph N/A   Overcast
10:35 PM 67.3 °F - 58.3 °F 73% 29.52 in 10.0 mi South 11.5 mph 23.0 mph N/A   Mostly Cloudy
10:55 PM 67.6 °F - 58.3 °F 72% 29.51 in 10.0 mi South 11.5 mph 20.7 mph N/A   Scattered Clouds
11:15 PM 68.5 °F - 58.1 °F 69% 29.49 in 10.0 mi South 16.1 mph 28.8 mph N/A   Mostly Cloudy
11:35 PM 68.7 °F - 58.5 °F 70% 29.50 in 10.0 mi SSW 19.6 mph 34.5 mph N/A Rain Light Rain
11:55 PM 66.4 °F - 59.9 °F 80% 29.49 in 7.0 mi South 16.1 mph 33.4 mph 0.01 in Rain Rain